Home > Weather > Columbia > Past weeks

Flag for U.S.A. Weather for the Past 2 Weeks in Columbia, South Carolina, U.S.A.

Now
34 °F

Clear.


Feels Like: 26 °F
Forecast: 26 / 50 °F
Wind: 10 mph from West

Location: Columbia Owens Downtown Airport

Current Time: Feb 11, 2016 at 12:28:36 AM

Latest Report: Feb 10, 2016 at 11:53 PM


Visibility: 10 mi

Pressure: 30.14 "Hg

Humidity: 37%

Dew point: 10 °F

Location of ColumbiaLocation

Historic Weather in Columbia — Graph

°F

Columbia Temperature Yesterday

Maximum temperature yesterday: 39 °F (at 1:53 PM)
Minimum temperature yesterday: 28 °F (at 6:53 AM)
Average temperature yesterday: 33 °F

High & Low Weather Summary for the Past Weeks

 TemperatureHumidityPressure
High75 °F (Feb 1, 1:53 PM)97% (Feb 2, 6:53 AM)30.43 "Hg (Feb 2, 6:53 AM)
Low28 °F (Feb 10, 6:53 AM)21% (Feb 5, 1:53 PM)29.69 "Hg (Feb 8, 1:53 PM)
Average49 °F67%30.03 "Hg
* Reported Jan 26 10:53 PM — Feb 10 10:53 PM, Columbia, Weather by CustomWeather, © 2016

Note: Actual official high and low records may vary slightly from our data, if they occured in-between our weather recording intervals... More about our weather records

Advertising

Columbia Weather History for the Previous 24 Hours

 ConditionsComfort  
Time TempWeatherWind HumidityBarometerVisibility
10:53 PM
Wed, Feb 10
33 °FClear.6 mph40%30.13 "Hg10 mi
9:53 PM32 °FClear.3 mph43%30.12 "Hg10 mi
8:53 PM33 °FPassing clouds.5 mph40%30.11 "Hg10 mi
7:53 PM35 °FClear.7 mph34%30.11 "Hg10 mi
6:53 PM36 °FClear.13 mph32%30.09 "Hg10 mi
5:53 PM37 °FSunny.13 mph30%30.07 "Hg10 mi
4:53 PM39 °FSunny.15 mph25%30.05 "Hg10 mi
3:53 PM39 °FSunny.17 mph26%30.03 "Hg10 mi
2:53 PM39 °FSunny.18 mph30%30.01 "Hg10 mi
1:53 PM39 °FPassing clouds.22 mph31%30.01 "Hg10 mi
12:53 PM36 °FPartly sunny.16 mph40%30.02 "Hg10 mi
11:53 AM34 °FPartly sunny.15 mph44%30.04 "Hg10 mi
10:53 AM33 °FPassing clouds.17 mph41%30.05 "Hg10 mi
9:53 AM33 °FSunny.12 mph41%30.05 "Hg10 mi
8:53 AM30 °FSunny.17 mph45%30.04 "Hg10 mi
7:53 AM28 °FSunny.12 mph51%30.03 "Hg10 mi
6:53 AM28 °FClear.9 mph51%30.01 "Hg10 mi
5:53 AM29 °FClear.10 mph51%29.99 "Hg10 mi
4:53 AM29 °FClear.10 mph51%29.97 "Hg10 mi
3:53 AM30 °FClear.6 mph54%29.97 "Hg10 mi
2:53 AM31 °FClear.7 mph54%29.95 "Hg10 mi
1:53 AM31 °FClear.8 mph59%29.94 "Hg10 mi
12:53 AM33 °FClear.10 mph56%29.94 "Hg10 mi
Weather by CustomWeather, © 2016

See weather overviewHow to use our weather pages